Wright-Patt AFB, OH

12:03 AM EDT on April 27, 2018 (GMT -0400)
Wright-Patterson Air Force Base

Weather History for KFFO - November, 2013

Change the Weather History Date:

Saturday, November 9, 2013

  Actual Average Record
Temperature  
Mean Temperature 49 °F -  
Max Temperature 60 °F 51 °F 75 °F (1999)
Min Temperature 38 °F 34 °F 21 °F (2003)
Degree Days  
Heating Degree Days 16    
Moisture  
Dew Point 33 °F    
Average Humidity 55    
Maximum Humidity 72    
Minimum Humidity 41    
Precipitation  
Precipitation 0.00 in - - ()
Sea Level Pressure  
Sea Level Pressure 30.10 in    
Wind  
Wind Speed 11 mph (SSW)    
Max Wind Speed 23 mph    
Max Gust Speed 31 mph    
Visibility 10 miles    
Events      
Averages and records for this station are not official NWS values.
T = Trace of Precipitation, MM = Missing Value Source: NWS Daily Summary

Daily Weather History Graph

Daily Weather History Graph

Search for Another Location

Airport or City:

Astronomy

Nov. 09, 2013 Rise Set
Actual Time 7:14 AM EST 5:25 PM EST
Civil Twilight 6:45 AM EST 5:53 PM EST
Nautical Twilight 6:13 AM EST 6:26 PM EST
Astronomical Twilight 5:41 AM EST 6:57 PM EST
Moon 12:50 PM EST (11/9) 11:54 PM EST (11/9)
Length of Visible Light 11h 08m
Length of Day
10h 10m
Waxing Crescent, 44% of the Moon is Illuminated
Nov 9
Waxing Crescent
Nov 10
First Quarter
Nov 17
Full
Nov 25
Last Quarter
Dec 2
New

Hourly Weather History & Observations

Time (EST) Temp. Windchill Dew Point Humidity Pressure Visibility Wind Dir Wind Speed Gust Speed Precip Events Conditions
12:58 AM 39.7 °F 35.6 °F 30.0 °F 68% 30.25 in 10.0 mi SSE 5.8 mph - N/A   Scattered Clouds
1:58 AM 40.3 °F 37.1 °F 29.7 °F 66% 30.23 in 10.0 mi SSE 4.6 mph - N/A   Partly Cloudy
2:58 AM 39.0 °F 35.7 °F 29.5 °F 69% 30.19 in 10.0 mi SSE 4.6 mph - N/A   Scattered Clouds
3:58 AM 40.5 °F 35.1 °F 29.5 °F 65% 30.20 in 10.0 mi SSE 8.1 mph - N/A   Partly Cloudy
4:58 AM 39.9 °F 33.4 °F 29.1 °F 65% 30.18 in 10.0 mi SSE 10.4 mph - N/A   Overcast
5:58 AM 40.5 °F 34.1 °F 27.5 °F 60% 30.18 in 10.0 mi South 10.4 mph - N/A   Overcast
6:58 AM 38.5 °F 31.6 °F 27.1 °F 64% 30.16 in 10.0 mi South 10.4 mph - N/A   Clear
7:58 AM 39.4 °F 33.2 °F 27.3 °F 62% 30.17 in 10.0 mi South 9.2 mph - N/A   Clear
8:58 AM 45.5 °F 38.3 °F 26.4 °F 47% 30.16 in 10.0 mi SSW 17.3 mph - N/A   Clear
9:58 AM 48.7 °F - 28.2 °F 45% 30.12 in 10.0 mi SSW 15.0 mph 23.0 mph N/A   Clear
10:19 AM 51.8 °F - 30.2 °F 44% 30.09 in 10.0 mi SSW 23.0 mph 28.8 mph N/A   Clear
10:58 AM 52.0 °F - 30.9 °F 45% 30.10 in 10.0 mi SW 16.1 mph - N/A   Clear
11:58 AM 54.7 °F - 32.9 °F 44% 30.07 in 10.0 mi SW 18.4 mph 26.5 mph N/A   Clear
12:58 PM 57.4 °F - 34.3 °F 42% 30.03 in 10.0 mi SSW 19.6 mph 27.6 mph N/A   Clear
1:58 PM 59.5 °F - 36.5 °F 42% 30.02 in 10.0 mi SW 18.4 mph 31.1 mph N/A   Clear
2:58 PM 59.9 °F - 36.1 °F 41% 30.01 in 10.0 mi SW 19.6 mph 28.8 mph N/A   Clear
3:58 PM 60.1 °F - 36.5 °F 41% 30.01 in 10.0 mi SW 20.7 mph - N/A   Clear
4:30 PM 59.0 °F - 37.4 °F 45% 29.99 in 10.0 mi SW 17.3 mph - N/A   Partly Cloudy
4:58 PM 57.9 °F - 36.1 °F 44% 30.01 in 10.0 mi SW 16.1 mph 26.5 mph N/A   Clear
5:58 PM 55.9 °F - 36.3 °F 48% 30.02 in 10.0 mi SW 17.3 mph - N/A   Clear
6:58 PM 53.4 °F - 36.9 °F 53% 30.04 in 10.0 mi SW 12.7 mph - N/A   Clear
7:58 PM 50.9 °F - 37.6 °F 60% 30.05 in 10.0 mi SW 11.5 mph - N/A   Clear
8:58 PM 50.9 °F - 37.8 °F 61% 30.06 in 10.0 mi SW 12.7 mph - N/A   Clear
9:58 PM 50.5 °F - 38.5 °F 63% 30.07 in 10.0 mi SW 15.0 mph - N/A   Clear
10:58 PM 49.6 °F - 38.8 °F 66% 30.08 in 10.0 mi SW 12.7 mph - N/A   Clear
11:58 PM 48.0 °F - 39.2 °F 72% 30.08 in 10.0 mi WSW 10.4 mph - N/A   Clear